owner,sensor,date,latitude,longitude,vertical_datum,mass_concentration_of_oxygen_in_sea_water,qcFlag 
SCCF RECON,ioos:station:SCCF:16:1,2011-01-01T00:00:00Z,26.4345,-81.9647,2.858,8.01,1111122 
SCCF RECON,ioos:station:SCCF:16:1,2011-01-01T01:00:00Z,26.4345,-81.9647,2.909,8.23,1111122 
SCCF RECON,ioos:station:SCCF:16:1,2011-01-01T02:00:00Z,26.4345,-81.9647,2.893,8.17,1111122 
SCCF RECON,ioos:station:SCCF:16:1,2011-01-01T03:00:00Z,26.4345,-81.9647,2.882,8.17,1111122 
SCCF RECON,ioos:station:SCCF:16:1,2011-01-01T04:00:00Z,26.4345,-81.9647,2.787,8.05,1111122 
SCCF RECON,ioos:station:SCCF:16:1,2011-01-01T05:00:00Z,26.4345,-81.9647,2.603,7.97,1111122 
SCCF RECON,ioos:station:SCCF:16:1,2011-01-01T06:00:00Z,26.4345,-81.9647,2.386,8.0,1111122 
SCCF RECON,ioos:station:SCCF:16:1,2011-01-01T07:00:00Z,26.4345,-81.9647,2.181,7.84,1111122 
SCCF RECON,ioos:station:SCCF:16:1,2011-01-01T08:00:00Z,26.4345,-81.9647,2.002,7.91,1111122 
SCCF RECON,ioos:station:SCCF:16:1,2011-01-01T09:00:00Z,26.4345,-81.9647,1.857,7.83,1111122 
SCCF RECON,ioos:station:SCCF:16:1,2011-01-01T10:00:00Z,26.4345,-81.9647,1.917,7.79,1111122 
SCCF RECON,ioos:station:SCCF:16:1,2011-01-01T11:00:00Z,26.4345,-81.9647,2.082,7.7,1111122 
SCCF RECON,ioos:station:SCCF:16:1,2011-01-01T12:00:00Z,26.4345,-81.9647,2.297,7.87,1111122 
SCCF RECON,ioos:station:SCCF:16:1,2011-01-01T13:00:00Z,26.4345,-81.9647,2.422,7.84,1111122 
SCCF RECON,ioos:station:SCCF:16:1,2011-01-01T14:00:00Z,26.4345,-81.9647,2.509,7.84,1111122 
SCCF RECON,ioos:station:SCCF:16:1,2011-01-01T15:00:00Z,26.4345,-81.9647,2.652,7.85,1111122 
SCCF RECON,ioos:station:SCCF:16:1,2011-01-01T16:00:00Z,26.4345,-81.9647,2.748,7.66,1111122 
SCCF RECON,ioos:station:SCCF:16:1,2011-01-01T17:00:00Z,26.4345,-81.9647,2.731,7.95,1111122 
SCCF RECON,ioos:station:SCCF:16:1,2011-01-01T18:00:00Z,26.4345,-81.9647,2.638,7.91,1111122 
SCCF RECON,ioos:station:SCCF:16:1,2011-01-01T19:00:00Z,26.4345,-81.9647,2.567,8.04,1111122 
SCCF RECON,ioos:station:SCCF:16:1,2011-01-01T20:00:00Z,26.4345,-81.9647,2.503,8.02,1111122 
SCCF RECON,ioos:station:SCCF:16:1,2011-01-01T21:00:00Z,26.4345,-81.9647,2.54,8.1,1111122 
SCCF RECON,ioos:station:SCCF:16:1,2011-01-01T22:00:00Z,26.4345,-81.9647,2.568,8.09,1111122 
SCCF RECON,ioos:station:SCCF:16:1,2011-01-01T23:00:00Z,26.4345,-81.9647,2.65,8.1,1111122 
SCCF RECON,ioos:station:SCCF:16:1,2011-01-02T00:00:00Z,26.4345,-81.9647,2.781,8.12,1111122 
SCCF RECON,ioos:station:SCCF:16:1,2011-01-02T01:00:00Z,26.4345,-81.9647,2.878,8.06,1111122 
SCCF RECON,ioos:station:SCCF:16:1,2011-01-02T02:00:00Z,26.4345,-81.9647,2.934,8.09,1111122 
SCCF RECON,ioos:station:SCCF:16:1,2011-01-02T03:00:00Z,26.4345,-81.9647,2.881,8.04,1111122 
SCCF RECON,ioos:station:SCCF:16:1,2011-01-02T04:00:00Z,26.4345,-81.9647,2.825,8.05,1111122 
SCCF RECON,ioos:station:SCCF:16:1,2011-01-02T05:00:00Z,26.4345,-81.9647,2.718,8.03,1111122 
SCCF RECON,ioos:station:SCCF:16:1,2011-01-02T06:00:00Z,26.4345,-81.9647,2.471,7.96,1111122 
SCCF RECON,ioos:station:SCCF:16:1,2011-01-02T07:00:00Z,26.4345,-81.9647,2.303,7.94,1111122 
SCCF RECON,ioos:station:SCCF:16:1,2011-01-02T08:00:00Z,26.4345,-81.9647,2.12,7.71,1111122 
SCCF RECON,ioos:station:SCCF:16:1,2011-01-02T09:00:00Z,26.4345,-81.9647,1.875,7.73,1111122 
SCCF RECON,ioos:station:SCCF:16:1,2011-01-02T10:00:00Z,26.4345,-81.9647,1.744,7.63,1111122 
SCCF RECON,ioos:station:SCCF:16:1,2011-01-02T11:00:00Z,26.4345,-81.9647,1.838,7.54,1111122 
SCCF RECON,ioos:station:SCCF:16:1,2011-01-02T12:00:00Z,26.4345,-81.9647,2.043,7.58,1111122 
SCCF RECON,ioos:station:SCCF:16:1,2011-01-02T13:00:00Z,26.4345,-81.9647,2.234,7.67,1111122 
SCCF RECON,ioos:station:SCCF:16:1,2011-01-02T14:00:00Z,26.4345,-81.9647,2.378,7.74,1111122 
SCCF RECON,ioos:station:SCCF:16:1,2011-01-02T15:00:00Z,26.4345,-81.9647,2.523,7.68,1111122 
SCCF RECON,ioos:station:SCCF:16:1,2011-01-02T16:00:00Z,26.4345,-81.9647,2.665,7.87,1111122 
SCCF RECON,ioos:station:SCCF:16:1,2011-01-02T17:00:00Z,26.4345,-81.9647,2.699,7.9,1111122 
SCCF RECON,ioos:station:SCCF:16:1,2011-01-02T18:00:00Z,26.4345,-81.9647,2.607,7.95,1111122 
SCCF RECON,ioos:station:SCCF:16:1,2011-01-02T19:00:00Z,26.4345,-81.9647,2.539,7.99,1111122 
SCCF RECON,ioos:station:SCCF:16:1,2011-01-02T20:00:00Z,26.4345,-81.9647,2.547,8.01,1111122 
SCCF RECON,ioos:station:SCCF:16:1,2011-01-02T21:00:00Z,26.4345,-81.9647,2.486,7.97,1111122 
SCCF RECON,ioos:station:SCCF:16:1,2011-01-02T22:00:00Z,26.4345,-81.9647,2.494,7.86,1111122 
SCCF RECON,ioos:station:SCCF:16:1,2011-01-02T23:00:00Z,26.4345,-81.9647,2.505,7.84,1111122 
SCCF RECON,ioos:station:SCCF:16:1,2011-01-03T00:00:00Z,26.4345,-81.9647,2.632,8.12,1111122 
SCCF RECON,ioos:station:SCCF:16:1,2011-01-03T01:00:00Z,26.4345,-81.9647,2.787,8.05,1111122 
SCCF RECON,ioos:station:SCCF:16:1,2011-01-03T02:00:00Z,26.4345,-81.9647,2.833,8.03,1111122 
SCCF RECON,ioos:station:SCCF:16:1,2011-01-03T03:00:00Z,26.4345,-81.9647,2.841,8.04,1111122 
SCCF RECON,ioos:station:SCCF:16:1,2011-01-03T04:00:00Z,26.4345,-81.9647,2.813,8.1,1111122 
SCCF RECON,ioos:station:SCCF:16:1,2011-01-03T05:00:00Z,26.4345,-81.9647,2.786,8.07,1111122 
SCCF RECON,ioos:station:SCCF:16:1,2011-01-03T06:00:00Z,26.4345,-81.9647,2.646,7.92,1111122 
SCCF RECON,ioos:station:SCCF:16:1,2011-01-03T07:00:00Z,26.4345,-81.9647,2.385,7.94,1111122 
SCCF RECON,ioos:station:SCCF:16:1,2011-01-03T08:00:00Z,26.4345,-81.9647,2.158,7.74,1111122 
SCCF RECON,ioos:station:SCCF:16:1,2011-01-03T09:00:00Z,26.4345,-81.9647,1.93,7.59,1111122 
SCCF RECON,ioos:station:SCCF:16:1,2011-01-03T10:00:00Z,26.4345,-81.9647,1.76,7.5,1111122 
SCCF RECON,ioos:station:SCCF:16:1,2011-01-03T11:00:00Z,26.4345,-81.9647,1.688,7.34,1111122 
SCCF RECON,ioos:station:SCCF:16:1,2011-01-03T12:00:00Z,26.4345,-81.9647,1.83,7.41,1111122 
SCCF RECON,ioos:station:SCCF:16:1,2011-01-03T13:00:00Z,26.4345,-81.9647,2.08,7.53,1111122 
SCCF RECON,ioos:station:SCCF:16:1,2011-01-03T14:00:00Z,26.4345,-81.9647,2.259,7.5,1111122 
SCCF RECON,ioos:station:SCCF:16:1,2011-01-03T15:00:00Z,26.4345,-81.9647,2.403,7.51,1111122 
SCCF RECON,ioos:station:SCCF:16:1,2011-01-03T16:00:00Z,26.4345,-81.9647,2.536,7.77,1111122 
SCCF RECON,ioos:station:SCCF:16:1,2011-01-03T17:00:00Z,26.4345,-81.9647,2.623,7.81,1111122 
SCCF RECON,ioos:station:SCCF:16:1,2011-01-03T18:00:00Z,26.4345,-81.9647,2.622,7.84,1111122 
SCCF RECON,ioos:station:SCCF:16:1,2011-01-03T19:00:00Z,26.4345,-81.9647,2.553,7.86,1111122 
SCCF RECON,ioos:station:SCCF:16:1,2011-01-03T20:00:00Z,26.4345,-81.9647,2.471,7.89,1111122 
SCCF RECON,ioos:station:SCCF:16:1,2011-01-03T21:00:00Z,26.4345,-81.9647,2.442,7.96,1111122 
SCCF RECON,ioos:station:SCCF:16:1,2011-01-03T22:00:00Z,26.4345,-81.9647,2.449,7.98,1111122 
SCCF RECON,ioos:station:SCCF:16:1,2011-01-03T23:00:00Z,26.4345,-81.9647,2.462,7.98,1111122 
SCCF RECON,ioos:station:SCCF:16:1,2011-01-04T00:00:00Z,26.4345,-81.9647,2.543,7.99,1111122 
SCCF RECON,ioos:station:SCCF:16:1,2011-01-04T01:00:00Z,26.4345,-81.9647,2.66,7.96,1111122 
SCCF RECON,ioos:station:SCCF:16:1,2011-01-04T02:00:00Z,26.4345,-81.9647,2.796,7.97,1111122 
SCCF RECON,ioos:station:SCCF:16:1,2011-01-04T03:00:00Z,26.4345,-81.9647,2.881,7.92,1111122 
SCCF RECON,ioos:station:SCCF:16:1,2011-01-04T04:00:00Z,26.4345,-81.9647,2.907,7.91,1111122 
SCCF RECON,ioos:station:SCCF:16:1,2011-01-04T05:00:00Z,26.4345,-81.9647,2.873,7.84,1111122 
SCCF RECON,ioos:station:SCCF:16:1,2011-01-04T06:00:00Z,26.4345,-81.9647,2.759,7.87,1111122 
SCCF RECON,ioos:station:SCCF:16:1,2011-01-04T07:00:00Z,26.4345,-81.9647,2.573,7.79,1111122 
SCCF RECON,ioos:station:SCCF:16:1,2011-01-04T08:00:00Z,26.4345,-81.9647,2.335,7.61,1111122 
SCCF RECON,ioos:station:SCCF:16:1,2011-01-04T09:00:00Z,26.4345,-81.9647,2.14,7.55,1111122 
SCCF RECON,ioos:station:SCCF:16:1,2011-01-04T10:00:00Z,26.4345,-81.9647,1.938,7.4,1111122 
SCCF RECON,ioos:station:SCCF:16:1,2011-01-04T11:00:00Z,26.4345,-81.9647,1.765,7.38,1111122 
SCCF RECON,ioos:station:SCCF:16:1,2011-01-04T12:00:00Z,26.4345,-81.9647,1.782,7.21,1111122 
SCCF RECON,ioos:station:SCCF:16:1,2011-01-04T13:00:00Z,26.4345,-81.9647,1.98,7.27,1111122 
SCCF RECON,ioos:station:SCCF:16:1,2011-01-04T14:00:00Z,26.4345,-81.9647,2.239,7.3,1111122 
SCCF RECON,ioos:station:SCCF:16:1,2011-01-04T15:00:00Z,26.4345,-81.9647,2.441,7.37,1111122 
SCCF RECON,ioos:station:SCCF:16:1,2011-01-04T16:00:00Z,26.4345,-81.9647,2.542,7.59,1111122 
SCCF RECON,ioos:station:SCCF:16:1,2011-01-04T17:00:00Z,26.4345,-81.9647,2.594,7.74,1111122 
SCCF RECON,ioos:station:SCCF:16:1,2011-01-04T18:00:00Z,26.4345,-81.9647,2.622,7.7,1111122 
SCCF RECON,ioos:station:SCCF:16:1,2011-01-04T19:00:00Z,26.4345,-81.9647,2.591,7.75,1111122 
SCCF RECON,ioos:station:SCCF:16:1,2011-01-04T20:00:00Z,26.4345,-81.9647,2.515,7.86,1111122 
SCCF RECON,ioos:station:SCCF:16:1,2011-01-04T21:00:00Z,26.4345,-81.9647,2.442,7.84,1111122 
SCCF RECON,ioos:station:SCCF:16:1,2011-01-04T22:00:00Z,26.4345,-81.9647,2.407,7.89,1111122 
SCCF RECON,ioos:station:SCCF:16:1,2011-01-04T23:00:00Z,26.4345,-81.9647,2.388,7.82,1111122 
SCCF RECON,ioos:station:SCCF:16:1,2011-01-05T00:00:00Z,26.4345,-81.9647,2.402,7.79,1111122 
SCCF RECON,ioos:station:SCCF:16:1,2011-01-05T01:00:00Z,26.4345,-81.9647,2.494,7.74,1111122 
SCCF RECON,ioos:station:SCCF:16:1,2011-01-05T02:00:00Z,26.4345,-81.9647,2.661,7.87,1111122 
SCCF RECON,ioos:station:SCCF:16:1,2011-01-05T03:00:00Z,26.4345,-81.9647,2.8,7.89,1111122 
SCCF RECON,ioos:station:SCCF:16:1,2011-01-05T04:00:00Z,26.4345,-81.9647,2.892,7.84,1111122 
SCCF RECON,ioos:station:SCCF:16:1,2011-01-05T05:00:00Z,26.4345,-81.9647,2.887,7.81,1111122 
SCCF RECON,ioos:station:SCCF:16:1,2011-01-05T06:00:00Z,26.4345,-81.9647,2.804,7.8,1111122 
SCCF RECON,ioos:station:SCCF:16:1,2011-01-05T07:00:00Z,26.4345,-81.9647,2.643,7.76,1111122 
SCCF RECON,ioos:station:SCCF:16:1,2011-01-05T08:00:00Z,26.4345,-81.9647,2.455,7.71,1111122 
SCCF RECON,ioos:station:SCCF:16:1,2011-01-05T09:00:00Z,26.4345,-81.9647,2.255,7.42,1111122 
SCCF RECON,ioos:station:SCCF:16:1,2011-01-05T10:00:00Z,26.4345,-81.9647,2.056,7.37,1111122 
SCCF RECON,ioos:station:SCCF:16:1,2011-01-05T11:00:00Z,26.4345,-81.9647,1.867,7.23,1111122 
SCCF RECON,ioos:station:SCCF:16:1,2011-01-05T12:00:00Z,26.4345,-81.9647,1.765,7.22,1111122 
SCCF RECON,ioos:station:SCCF:16:1,2011-01-05T13:00:00Z,26.4345,-81.9647,1.843,7.16,1111122 
SCCF RECON,ioos:station:SCCF:16:1,2011-01-05T14:00:00Z,26.4345,-81.9647,2.079,7.26,1111122 
SCCF RECON,ioos:station:SCCF:16:1,2011-01-05T15:00:00Z,26.4345,-81.9647,2.319,7.25,1111122 
SCCF RECON,ioos:station:SCCF:16:1,2011-01-05T16:00:00Z,26.4345,-81.9647,2.51,7.41,1111122 
SCCF RECON,ioos:station:SCCF:16:1,2011-01-05T17:00:00Z,26.4345,-81.9647,2.581,7.67,1111122 
SCCF RECON,ioos:station:SCCF:16:1,2011-01-05T18:00:00Z,26.4345,-81.9647,2.636,7.61,1111122 
SCCF RECON,ioos:station:SCCF:16:1,2011-01-05T19:00:00Z,26.4345,-81.9647,2.62,7.66,1111122 
SCCF RECON,ioos:station:SCCF:16:1,2011-01-05T20:00:00Z,26.4345,-81.9647,2.566,7.7,1111122 
SCCF RECON,ioos:station:SCCF:16:1,2011-01-05T21:00:00Z,26.4345,-81.9647,2.5,7.71,1111122 
SCCF RECON,ioos:station:SCCF:16:1,2011-01-05T22:00:00Z,26.4345,-81.9647,2.443,7.69,1111122 
SCCF RECON,ioos:station:SCCF:16:1,2011-01-05T23:00:00Z,26.4345,-81.9647,2.397,7.7,1111122 
SCCF RECON,ioos:station:SCCF:16:1,2011-01-06T00:00:00Z,26.4345,-81.9647,2.387,7.68,1111122 
SCCF RECON,ioos:station:SCCF:16:1,2011-01-06T01:00:00Z,26.4345,-81.9647,2.462,7.74,1111122 
SCCF RECON,ioos:station:SCCF:16:1,2011-01-06T02:00:00Z,26.4345,-81.9647,2.62,7.67,1111122 
SCCF RECON,ioos:station:SCCF:16:1,2011-01-06T03:00:00Z,26.4345,-81.9647,2.761,7.78,1111122 
SCCF RECON,ioos:station:SCCF:16:1,2011-01-06T04:00:00Z,26.4345,-81.9647,2.891,7.77,1111122 
SCCF RECON,ioos:station:SCCF:16:1,2011-01-06T05:00:00Z,26.4345,-81.9647,2.937,7.78,1111122 
SCCF RECON,ioos:station:SCCF:16:1,2011-01-06T06:00:00Z,26.4345,-81.9647,2.893,7.73,1111122 
SCCF RECON,ioos:station:SCCF:16:1,2011-01-06T07:00:00Z,26.4345,-81.9647,2.848,7.7,1111122 
SCCF RECON,ioos:station:SCCF:16:1,2011-01-06T08:00:00Z,26.4345,-81.9647,2.734,7.64,1111122 
SCCF RECON,ioos:station:SCCF:16:1,2011-01-06T09:00:00Z,26.4345,-81.9647,2.479,7.62,1111122 
SCCF RECON,ioos:station:SCCF:16:1,2011-01-06T10:00:00Z,26.4345,-81.9647,2.235,7.54,1111122 
SCCF RECON,ioos:station:SCCF:16:1,2011-01-06T11:00:00Z,26.4345,-81.9647,2.078,7.52,1111122 
SCCF RECON,ioos:station:SCCF:16:1,2011-01-06T12:00:00Z,26.4345,-81.9647,1.956,7.27,1111122 
SCCF RECON,ioos:station:SCCF:16:1,2011-01-06T13:00:00Z,26.4345,-81.9647,1.911,7.38,1111122 
SCCF RECON,ioos:station:SCCF:16:1,2011-01-06T14:00:00Z,26.4345,-81.9647,2.048,7.29,1111122 
SCCF RECON,ioos:station:SCCF:16:1,2011-01-06T15:00:00Z,26.4345,-81.9647,2.289,7.31,1111122 
SCCF RECON,ioos:station:SCCF:16:1,2011-01-06T16:00:00Z,26.4345,-81.9647,2.504,7.51,1111122 
SCCF RECON,ioos:station:SCCF:16:1,2011-01-06T17:00:00Z,26.4345,-81.9647,2.574,7.51,1111122 
SCCF RECON,ioos:station:SCCF:16:1,2011-01-06T18:00:00Z,26.4345,-81.9647,2.6,7.5,1111122 
SCCF RECON,ioos:station:SCCF:16:1,2011-01-06T19:00:00Z,26.4345,-81.9647,2.679,7.49,1111122 
SCCF RECON,ioos:station:SCCF:16:1,2011-01-06T20:00:00Z,26.4345,-81.9647,2.652,7.52,1111122 
SCCF RECON,ioos:station:SCCF:16:1,2011-01-06T21:00:00Z,26.4345,-81.9647,2.481,7.5,1111122 
SCCF RECON,ioos:station:SCCF:16:1,2011-01-06T22:00:00Z,26.4345,-81.9647,2.34,7.44,1111122 
SCCF RECON,ioos:station:SCCF:16:1,2011-01-06T23:00:00Z,26.4345,-81.9647,2.296,7.38,1111122 
SCCF RECON,ioos:station:SCCF:16:1,2011-01-07T00:00:00Z,26.4345,-81.9647,2.28,7.35,1111122 
SCCF RECON,ioos:station:SCCF:16:1,2011-01-07T01:00:00Z,26.4345,-81.9647,2.28,7.33,1111122 
SCCF RECON,ioos:station:SCCF:16:1,2011-01-07T02:00:00Z,26.4345,-81.9647,2.324,7.29,1111122 
SCCF RECON,ioos:station:SCCF:16:1,2011-01-07T03:00:00Z,26.4345,-81.9647,2.454,7.3,1111122 
SCCF RECON,ioos:station:SCCF:16:1,2011-01-07T04:00:00Z,26.4345,-81.9647,2.609,7.32,1111122 
SCCF RECON,ioos:station:SCCF:16:1,2011-01-07T05:00:00Z,26.4345,-81.9647,2.753,7.35,1111122 
SCCF RECON,ioos:station:SCCF:16:1,2011-01-07T06:00:00Z,26.4345,-81.9647,2.741,7.41,1111122 
SCCF RECON,ioos:station:SCCF:16:1,2011-01-07T07:00:00Z,26.4345,-81.9647,2.687,7.44,1111122 
SCCF RECON,ioos:station:SCCF:16:1,2011-01-07T08:00:00Z,26.4345,-81.9647,2.567,7.38,1111122 
SCCF RECON,ioos:station:SCCF:16:1,2011-01-07T09:00:00Z,26.4345,-81.9647,2.371,7.3,1111122 
SCCF RECON,ioos:station:SCCF:16:1,2011-01-07T10:00:00Z,26.4345,-81.9647,2.158,7.19,1111122 
SCCF RECON,ioos:station:SCCF:16:1,2011-01-07T11:00:00Z,26.4345,-81.9647,1.981,7.14,1111122 
SCCF RECON,ioos:station:SCCF:16:1,2011-01-07T12:00:00Z,26.4345,-81.9647,1.922,6.76,1111122 
SCCF RECON,ioos:station:SCCF:16:1,2011-01-07T13:00:00Z,26.4345,-81.9647,1.84,6.94,1111122 
SCCF RECON,ioos:station:SCCF:16:1,2011-01-07T14:00:00Z,26.4345,-81.9647,1.884,6.91,1111122 
SCCF RECON,ioos:station:SCCF:16:1,2011-01-07T15:00:00Z,26.4345,-81.9647,2.09,6.91,1111122 
SCCF RECON,ioos:station:SCCF:16:1,2011-01-07T16:00:00Z,26.4345,-81.9647,2.302,7.04,1111122 
SCCF RECON,ioos:station:SCCF:16:1,2011-01-07T17:00:00Z,26.4345,-81.9647,2.434,7.16,1111122 
SCCF RECON,ioos:station:SCCF:16:1,2011-01-07T18:00:00Z,26.4345,-81.9647,2.482,7.3,1111122 
SCCF RECON,ioos:station:SCCF:16:1,2011-01-07T19:00:00Z,26.4345,-81.9647,2.585,7.35,1111122 
SCCF RECON,ioos:station:SCCF:16:1,2011-01-07T20:00:00Z,26.4345,-81.9647,2.604,7.43,1111122 
SCCF RECON,ioos:station:SCCF:16:1,2011-01-07T21:00:00Z,26.4345,-81.9647,2.563,7.5,1111122 
SCCF RECON,ioos:station:SCCF:16:1,2011-01-07T22:00:00Z,26.4345,-81.9647,2.465,7.53,1111122 
SCCF RECON,ioos:station:SCCF:16:1,2011-01-07T23:00:00Z,26.4345,-81.9647,2.412,7.52,1111122 
SCCF RECON,ioos:station:SCCF:16:1,2011-01-08T00:00:00Z,26.4345,-81.9647,2.376,7.42,1111122 
SCCF RECON,ioos:station:SCCF:16:1,2011-01-08T01:00:00Z,26.4345,-81.9647,2.362,7.33,1111122 
SCCF RECON,ioos:station:SCCF:16:1,2011-01-08T02:00:00Z,26.4345,-81.9647,2.368,7.24,1111122 
SCCF RECON,ioos:station:SCCF:16:1,2011-01-08T03:00:00Z,26.4345,-81.9647,2.481,7.28,1111122 
SCCF RECON,ioos:station:SCCF:16:1,2011-01-08T04:00:00Z,26.4345,-81.9647,2.648,7.32,1111122 
SCCF RECON,ioos:station:SCCF:16:1,2011-01-08T05:00:00Z,26.4345,-81.9647,2.734,7.47,1111122 
SCCF RECON,ioos:station:SCCF:16:1,2011-01-08T06:00:00Z,26.4345,-81.9647,2.711,7.47,1111122 
SCCF RECON,ioos:station:SCCF:16:1,2011-01-08T07:00:00Z,26.4345,-81.9647,2.767,7.49,1111122 
SCCF RECON,ioos:station:SCCF:16:1,2011-01-08T08:00:00Z,26.4345,-81.9647,2.777,7.47,1111122 
SCCF RECON,ioos:station:SCCF:16:1,2011-01-08T09:00:00Z,26.4345,-81.9647,2.626,7.42,1111122 
SCCF RECON,ioos:station:SCCF:16:1,2011-01-08T10:00:00Z,26.4345,-81.9647,2.456,7.42,1111122 
SCCF RECON,ioos:station:SCCF:16:1,2011-01-08T11:00:00Z,26.4345,-81.9647,2.312,7.34,1111122 
SCCF RECON,ioos:station:SCCF:16:1,2011-01-08T12:00:00Z,26.4345,-81.9647,2.168,7.05,1111122 
SCCF RECON,ioos:station:SCCF:16:1,2011-01-08T13:00:00Z,26.4345,-81.9647,2.064,6.95,1111122 
SCCF RECON,ioos:station:SCCF:16:1,2011-01-08T14:00:00Z,26.4345,-81.9647,2.019,7.02,1111122 
SCCF RECON,ioos:station:SCCF:16:1,2011-01-08T15:00:00Z,26.4345,-81.9647,2.119,6.98,1111122 
SCCF RECON,ioos:station:SCCF:16:1,2011-01-08T16:00:00Z,26.4345,-81.9647,2.307,6.99,1111122 
SCCF RECON,ioos:station:SCCF:16:1,2011-01-08T17:00:00Z,26.4345,-81.9647,2.45,7.01,1111122 
SCCF RECON,ioos:station:SCCF:16:1,2011-01-08T18:00:00Z,26.4345,-81.9647,2.549,7.35,1111122 
SCCF RECON,ioos:station:SCCF:16:1,2011-01-08T19:00:00Z,26.4345,-81.9647,2.597,7.51,1111122 
SCCF RECON,ioos:station:SCCF:16:1,2011-01-08T20:00:00Z,26.4345,-81.9647,2.608,7.56,1111122 
SCCF RECON,ioos:station:SCCF:16:1,2011-01-08T21:00:00Z,26.4345,-81.9647,2.565,7.62,1111122 
SCCF RECON,ioos:station:SCCF:16:1,2011-01-08T22:00:00Z,26.4345,-81.9647,2.465,7.62,1111122 
SCCF RECON,ioos:station:SCCF:16:1,2011-01-08T23:00:00Z,26.4345,-81.9647,2.353,7.62,1111122 
SCCF RECON,ioos:station:SCCF:16:1,2011-01-09T00:00:00Z,26.4345,-81.9647,2.3,7.37,1111122 
SCCF RECON,ioos:station:SCCF:16:1,2011-01-09T01:00:00Z,26.4345,-81.9647,2.249,7.25,1111122 
SCCF RECON,ioos:station:SCCF:16:1,2011-01-09T02:00:00Z,26.4345,-81.9647,2.216,7.12,1111122 
SCCF RECON,ioos:station:SCCF:16:1,2011-01-09T03:00:00Z,26.4345,-81.9647,2.278,7.02,1111122 
SCCF RECON,ioos:station:SCCF:16:1,2011-01-09T04:00:00Z,26.4345,-81.9647,2.406,7.02,1111122 
SCCF RECON,ioos:station:SCCF:16:1,2011-01-09T05:00:00Z,26.4345,-81.9647,2.521,7.26,1111122 
SCCF RECON,ioos:station:SCCF:16:1,2011-01-09T06:00:00Z,26.4345,-81.9647,2.605,7.29,1111122 
SCCF RECON,ioos:station:SCCF:16:1,2011-01-09T07:00:00Z,26.4345,-81.9647,2.63,7.3,1111122 
SCCF RECON,ioos:station:SCCF:16:1,2011-01-09T08:00:00Z,26.4345,-81.9647,2.651,7.41,1111122 
SCCF RECON,ioos:station:SCCF:16:1,2011-01-09T09:00:00Z,26.4345,-81.9647,2.627,7.47,1111122 
SCCF RECON,ioos:station:SCCF:16:1,2011-01-09T10:00:00Z,26.4345,-81.9647,2.49,7.29,1111122 
SCCF RECON,ioos:station:SCCF:16:1,2011-01-09T11:00:00Z,26.4345,-81.9647,2.304,7.23,1111122 
SCCF RECON,ioos:station:SCCF:16:1,2011-01-09T12:00:00Z,26.4345,-81.9647,2.154,7.02,1111122 
SCCF RECON,ioos:station:SCCF:16:1,2011-01-09T13:00:00Z,26.4345,-81.9647,2.087,6.93,1111122 
SCCF RECON,ioos:station:SCCF:16:1,2011-01-09T14:00:00Z,26.4345,-81.9647,2.027,6.83,1111122 
SCCF RECON,ioos:station:SCCF:16:1,2011-01-09T15:00:00Z,26.4345,-81.9647,2.031,6.94,1111122 
SCCF RECON,ioos:station:SCCF:16:1,2011-01-09T16:00:00Z,26.4345,-81.9647,2.196,6.96,1111122 
SCCF RECON,ioos:station:SCCF:16:1,2011-01-09T17:00:00Z,26.4345,-81.9647,2.407,7.0,1111122 
SCCF RECON,ioos:station:SCCF:16:1,2011-01-09T18:00:00Z,26.4345,-81.9647,2.554,7.04,1111122 
SCCF RECON,ioos:station:SCCF:16:1,2011-01-09T19:00:00Z,26.4345,-81.9647,2.601,7.06,1111122 
SCCF RECON,ioos:station:SCCF:16:1,2011-01-09T20:00:00Z,26.4345,-81.9647,2.647,7.22,1111122 
SCCF RECON,ioos:station:SCCF:16:1,2011-01-09T21:00:00Z,26.4345,-81.9647,2.649,7.31,1111122 
SCCF RECON,ioos:station:SCCF:16:1,2011-01-09T22:00:00Z,26.4345,-81.9647,2.581,7.25,1111122 
SCCF RECON,ioos:station:SCCF:16:1,2011-01-09T23:00:00Z,26.4345,-81.9647,2.497,7.21,1111122 
SCCF RECON,ioos:station:SCCF:16:1,2011-01-10T00:00:00Z,26.4345,-81.9647,2.414,7.3,1111122 
SCCF RECON,ioos:station:SCCF:16:1,2011-01-10T01:00:00Z,26.4345,-81.9647,2.354,7.07,1111122 
SCCF RECON,ioos:station:SCCF:16:1,2011-01-10T02:00:00Z,26.4345,-81.9647,2.325,7.08,1111122 
SCCF RECON,ioos:station:SCCF:16:1,2011-01-10T03:00:00Z,26.4345,-81.9647,2.285,7.04,1111122 
SCCF RECON,ioos:station:SCCF:16:1,2011-01-10T04:00:00Z,26.4345,-81.9647,2.308,7.01,1111122 
SCCF RECON,ioos:station:SCCF:16:1,2011-01-10T05:00:00Z,26.4345,-81.9647,2.409,7.01,1111122 
SCCF RECON,ioos:station:SCCF:16:1,2011-01-10T06:00:00Z,26.4345,-81.9647,2.544,7.04,1111122 
SCCF RECON,ioos:station:SCCF:16:1,2011-01-10T07:00:00Z,26.4345,-81.9647,2.588,7.09,1111122 
SCCF RECON,ioos:station:SCCF:16:1,2011-01-10T08:00:00Z,26.4345,-81.9647,2.602,7.4,1111122 
SCCF RECON,ioos:station:SCCF:16:1,2011-01-10T09:00:00Z,26.4345,-81.9647,2.619,7.38,1111122 
SCCF RECON,ioos:station:SCCF:16:1,2011-01-10T10:00:00Z,26.4345,-81.9647,2.609,7.28,1111122 
SCCF RECON,ioos:station:SCCF:16:1,2011-01-10T11:00:00Z,26.4345,-81.9647,2.521,7.21,1111122 
SCCF RECON,ioos:station:SCCF:16:1,2011-01-10T12:00:00Z,26.4345,-81.9647,2.398,7.19,1111122 
SCCF RECON,ioos:station:SCCF:16:1,2011-01-10T13:00:00Z,26.4345,-81.9647,2.375,7.21,1111122 
SCCF RECON,ioos:station:SCCF:16:1,2011-01-10T14:00:00Z,26.4345,-81.9647,2.328,7.27,1111122 
SCCF RECON,ioos:station:SCCF:16:1,2011-01-10T15:00:00Z,26.4345,-81.9647,2.25,7.27,1111122 
SCCF RECON,ioos:station:SCCF:16:1,2011-01-10T16:00:00Z,26.4345,-81.9647,2.28,7.12,1111122 
SCCF RECON,ioos:station:SCCF:16:1,2011-01-10T17:00:00Z,26.4345,-81.9647,2.41,7.1,1111122 
SCCF RECON,ioos:station:SCCF:16:1,2011-01-10T18:00:00Z,26.4345,-81.9647,2.592,7.46,1111122 
SCCF RECON,ioos:station:SCCF:16:1,2011-01-10T19:00:00Z,26.4345,-81.9647,2.631,7.51,1111122 
SCCF RECON,ioos:station:SCCF:16:1,2011-01-10T20:00:00Z,26.4345,-81.9647,2.678,7.48,1111122 
SCCF RECON,ioos:station:SCCF:16:1,2011-01-10T21:00:00Z,26.4345,-81.9647,2.725,7.55,1111122 
SCCF RECON,ioos:station:SCCF:16:1,2011-01-10T22:00:00Z,26.4345,-81.9647,2.681,7.52,1111122 
SCCF RECON,ioos:station:SCCF:16:1,2011-01-10T23:00:00Z,26.4345,-81.9647,2.61,7.47,1111122 
SCCF RECON,ioos:station:SCCF:16:1,2011-01-11T00:00:00Z,26.4345,-81.9647,2.483,7.41,1111122 
SCCF RECON,ioos:station:SCCF:16:1,2011-01-11T01:00:00Z,26.4345,-81.9647,2.422,7.37,1111122 
SCCF RECON,ioos:station:SCCF:16:1,2011-01-11T02:00:00Z,26.4345,-81.9647,2.353,7.37,1111122 
SCCF RECON,ioos:station:SCCF:16:1,2011-01-11T03:00:00Z,26.4345,-81.9647,2.305,7.31,1111122 
SCCF RECON,ioos:station:SCCF:16:1,2011-01-11T04:00:00Z,26.4345,-81.9647,2.264,7.34,1111122 
SCCF RECON,ioos:station:SCCF:16:1,2011-01-11T05:00:00Z,26.4345,-81.9647,2.3,7.28,1111122 
SCCF RECON,ioos:station:SCCF:16:1,2011-01-11T06:00:00Z,26.4345,-81.9647,2.362,7.25,1111122 
SCCF RECON,ioos:station:SCCF:16:1,2011-01-11T07:00:00Z,26.4345,-81.9647,2.44,7.25,1111122 
SCCF RECON,ioos:station:SCCF:16:1,2011-01-11T08:00:00Z,26.4345,-81.9647,2.533,7.24,1111122 
SCCF RECON,ioos:station:SCCF:16:1,2011-01-11T09:00:00Z,26.4345,-81.9647,2.556,7.25,1111122 
SCCF RECON,ioos:station:SCCF:16:1,2011-01-11T10:00:00Z,26.4345,-81.9647,2.556,7.24,1111122 
SCCF RECON,ioos:station:SCCF:16:1,2011-01-11T11:00:00Z,26.4345,-81.9647,2.535,7.24,1111122 
SCCF RECON,ioos:station:SCCF:16:1,2011-01-11T12:00:00Z,26.4345,-81.9647,2.482,7.23,1111122 
SCCF RECON,ioos:station:SCCF:16:1,2011-01-11T13:00:00Z,26.4345,-81.9647,2.413,7.19,1111122 
SCCF RECON,ioos:station:SCCF:16:1,2011-01-11T14:00:00Z,26.4345,-81.9647,2.364,7.13,1111122 
SCCF RECON,ioos:station:SCCF:16:1,2011-01-11T15:00:00Z,26.4345,-81.9647,2.354,7.11,1111122 
SCCF RECON,ioos:station:SCCF:16:1,2011-01-11T17:00:00Z,26.4345,-81.9647,2.427,7.2,1111122 
SCCF RECON,ioos:station:SCCF:16:1,2011-01-11T18:00:00Z,26.4345,-81.9647,2.517,7.27,1111122 
SCCF RECON,ioos:station:SCCF:16:1,2011-01-11T19:00:00Z,26.4345,-81.9647,2.587,7.32,1111122 
SCCF RECON,ioos:station:SCCF:16:1,2011-01-11T20:00:00Z,26.4345,-81.9647,2.63,7.41,1111122 